sat.trackr.live / text

‹ back to catalog

STARLINK-1364

NORAD 45589 · 2020-025BL

PAYLOAD ACTIVE UNKNOWN

§ Identity

Operator
Country
US
Launch date
2020-04-22
Launch site
AFETR
Launch vehicle
Mass (kg)
RCS (m²)

Purposes: comms

External: N2YO · Heavens-Above · Gunter

§ Orbital elements

Epoch: 2026-09-04T00:59:40.892064Z

Period
91.11 min
Inclination
53.0343°
Eccentricity
0.0004062
Mean motion
15.80568721 rev/d
Perigee alt
326.1 km
Apogee alt
331.6 km
Semi-major
6,707.0 km
B*
3.6525e-4
RAAN
266.1840°
Arg perigee
28.4570°
Mean anomaly
331.6672°
Rev number
35,364

§ Raw data

STARLINK-13641 45589U 20025BL  26247.04144551  .00071015  00000+0  36525-3 0  99922 45589  53.0343 266.1840 0004062  28.4570 331.6672 15.80568721353648

JSON: /api/v1/satellites/45589 · /tle

For live sub-satellite position, see the globe view (requires WebGL).

§ Visibility from observer

Set your observer location to see the next 7 days of passes ≥ 10°. The values pass through the URL so the page stays shareable.

No JS? Fill the form by hand. The geolocation button needs JavaScript.